EWG4K LSZH-EDDK

Flight info

Callsign EWG4K
Flight time N/A
Altitude 30000
Route DEGES3W/28 DEGES Z1 SUDEN T844 UMDAS/N0395F240 T844 ASKIK T840 GULKO GULKO1B
Aircraft A319/M-SDE3FGHIRWY/LB1

Departure

Time N/A
Airport Zürich Airport (LSZH)

Arrival

Time 2026-04-24 19:39
Airport Cologne Bonn Airport (EDDK)
Time Latitude Longitude Altitude Speed Heading
2026-04-24 18:54 47.43355 9.05629 21559 ft 391 kts 101°
2026-04-24 18:55 47.42240 9.13548 22697 ft 397 kts 97°
2026-04-24 18:55 47.42097 9.17625 23256 ft 399 kts 86°
2026-04-24 18:55 47.42491 9.21689 23795 ft 401 kts 75°
2026-04-24 18:56 47.43414 9.25581 24247 ft 403 kts 64°
2026-04-24 18:56 47.44765 9.29214 24687 ft 405 kts 59°
2026-04-24 18:56 47.46179 9.32837 25130 ft 408 kts 59°
2026-04-24 18:56 47.47812 9.36274 25565 ft 410 kts 49°
2026-04-24 18:57 47.49854 9.39225 25990 ft 412 kts 38°
2026-04-24 18:57 47.52242 9.41570 26417 ft 414 kts 27°
2026-04-24 18:57 47.54901 9.43238 26838 ft 416 kts 18°
2026-04-24 18:57 47.57676 9.44514 27251 ft 419 kts 13°
2026-04-24 18:58 47.60556 9.45206 27668 ft 422 kts
2026-04-24 18:58 47.63499 9.45387 28089 ft 424 kts
2026-04-24 18:58 47.66458 9.45541 28506 ft 427 kts
2026-04-24 18:58 47.69436 9.45697 28921 ft 430 kts
2026-04-24 18:59 47.72433 9.45855 29322 ft 433 kts
2026-04-24 18:59 47.75448 9.46018 29722 ft 435 kts
2026-04-24 18:59 47.78485 9.46187 30069 ft 438 kts
2026-04-24 19:00 47.84544 9.46397 30156 ft 438 kts 359°
2026-04-24 19:00 47.90650 9.46326 30152 ft 438 kts 358°
2026-04-24 19:01 47.96744 9.46234 30154 ft 439 kts 359°
2026-04-24 19:01 48.02893 9.46197 30151 ft 439 kts 359°
2026-04-24 19:02 48.07971 9.46192 30153 ft 438 kts 359°
2026-04-24 19:02 48.15060 9.46193 30152 ft 438 kts 359°
2026-04-24 19:03 48.21159 9.46189 30154 ft 438 kts 359°
2026-04-24 19:03 48.27259 9.46164 30153 ft 438 kts 355°
2026-04-24 19:03 48.30248 9.45380 30157 ft 436 kts 340°
2026-04-24 19:04 48.33101 9.43828 30153 ft 436 kts 338°
2026-04-24 19:04 48.38783 9.40629 30151 ft 436 kts 338°
2026-04-24 19:05 48.44461 9.37400 30149 ft 436 kts 338°
2026-04-24 19:05 48.49219 9.34696 30149 ft 436 kts 338°
2026-04-24 19:06 48.54897 9.31479 30163 ft 436 kts 338°
2026-04-24 19:06 48.60573 9.28245 30168 ft 436 kts 338°
2026-04-24 19:07 48.66247 9.24998 30165 ft 436 kts 338°
2026-04-24 19:07 48.71883 9.21774 30171 ft 436 kts 337°
2026-04-24 19:08 48.77548 9.18515 30167 ft 436 kts 337°
2026-04-24 19:08 48.83240 9.15239 30157 ft 438 kts 337°
2026-04-24 19:09 48.88942 9.11966 30155 ft 438 kts 337°
2026-04-24 19:09 48.94639 9.08679 30149 ft 438 kts 337°
2026-04-24 19:10 49.00318 9.05383 30140 ft 436 kts 336°
2026-04-24 19:10 49.05895 9.02148 29987 ft 417 kts 336°
2026-04-24 19:10 49.08576 9.00595 29767 ft 407 kts 336°
2026-04-24 19:11 49.11205 8.99069 29355 ft 401 kts 336°
2026-04-24 19:11 49.13770 8.97573 28905 ft 397 kts 336°
2026-04-24 19:11 49.16343 8.96070 28441 ft 394 kts 336°
2026-04-24 19:11 49.18894 8.94578 28003 ft 391 kts 336°
2026-04-24 19:12 49.21421 8.93099 27587 ft 387 kts 336°
2026-04-24 19:12 49.23928 8.91633 27163 ft 384 kts 336°
2026-04-24 19:12 49.26413 8.90178 26761 ft 381 kts 336°
2026-04-24 19:12 49.28885 8.88730 26307 ft 380 kts 336°
2026-04-24 19:13 49.30550 8.87752 26025 ft 379 kts 336°
2026-04-24 19:13 49.33792 8.85838 25477 ft 376 kts 336°
2026-04-24 19:13 49.36224 8.84399 25185 ft 373 kts 336°
2026-04-24 19:13 49.38651 8.82963 25144 ft 374 kts 336°
2026-04-24 19:14 49.41134 8.81728 25163 ft 376 kts 341°
2026-04-24 19:14 49.43647 8.80633 25134 ft 374 kts 341°
2026-04-24 19:14 49.46135 8.79550 24789 ft 370 kts 341°
2026-04-24 19:14 49.48609 8.78471 24689 ft 370 kts 341°
2026-04-24 19:15 49.51091 8.77384 24593 ft 371 kts 341°
2026-04-24 19:15 49.53573 8.76295 24500 ft 371 kts 341°
2026-04-24 19:15 49.56056 8.75205 24406 ft 370 kts 341°
2026-04-24 19:15 49.58528 8.74119 24287 ft 370 kts 341°
2026-04-24 19:16 49.63463 8.71942 24154 ft 368 kts 341°
2026-04-24 19:16 49.65925 8.70853 24159 ft 368 kts 340°
2026-04-24 19:16 49.68385 8.69769 24156 ft 368 kts 341°
2026-04-24 19:17 49.70844 8.68684 24154 ft 368 kts 340°
2026-04-24 19:17 49.73303 8.67596 24155 ft 368 kts 340°
2026-04-24 19:17 49.75763 8.66506 24153 ft 367 kts 340°
2026-04-24 19:17 49.78224 8.65418 24152 ft 367 kts 340°
2026-04-24 19:18 49.80680 8.64330 24148 ft 367 kts 340°
2026-04-24 19:18 49.83143 8.63240 24149 ft 368 kts 340°
2026-04-24 19:18 49.85603 8.62152 24149 ft 368 kts 340°
2026-04-24 19:18 49.88058 8.61061 24156 ft 367 kts 340°
2026-04-24 19:19 49.90511 8.59967 24152 ft 366 kts 340°
2026-04-24 19:19 49.92961 8.58873 24165 ft 366 kts 340°
2026-04-24 19:19 49.95406 8.57778 24166 ft 366 kts 340°
2026-04-24 19:19 49.97851 8.56680 24166 ft 366 kts 340°
2026-04-24 19:20 50.00296 8.55584 24165 ft 366 kts 340°
2026-04-24 19:20 50.02746 8.54485 24166 ft 366 kts 340°
2026-04-24 19:20 50.05190 8.53387 24166 ft 366 kts 340°
2026-04-24 19:20 50.07621 8.52214 24165 ft 365 kts 338°
2026-04-24 19:21 50.10024 8.50947 24166 ft 365 kts 337°
2026-04-24 19:21 50.12416 8.49628 24169 ft 364 kts 336°
2026-04-24 19:21 50.14799 8.48296 24164 ft 364 kts 336°
2026-04-24 19:21 50.17188 8.46963 24164 ft 364 kts 336°
2026-04-24 19:22 50.18768 8.46087 24167 ft 364 kts 336°
2026-04-24 19:22 50.21934 8.44357 24144 ft 363 kts 337°
2026-04-24 19:22 50.24313 8.43072 23780 ft 360 kts 337°
2026-04-24 19:22 50.26674 8.41801 23307 ft 358 kts 337°
2026-04-24 19:23 50.28995 8.40434 22815 ft 353 kts 331°
2026-04-24 19:23 50.31096 8.38513 22331 ft 348 kts 324°
2026-04-24 19:23 50.33132 8.36475 21836 ft 347 kts 324°
2026-04-24 19:23 50.35160 8.34454 21365 ft 345 kts 324°
2026-04-24 19:24 50.37177 8.32443 20903 ft 343 kts 324°
2026-04-24 19:24 50.39185 8.30440 20421 ft 341 kts 324°
2026-04-24 19:24 50.41182 8.28447 20192 ft 341 kts 324°
2026-04-24 19:24 50.43176 8.26450 20074 ft 339 kts 324°
2026-04-24 19:25 50.45162 8.24461 19632 ft 338 kts 324°
2026-04-24 19:25 50.47137 8.22479 19180 ft 336 kts 324°
2026-04-24 19:25 50.49103 8.20502 18747 ft 335 kts 324°
2026-04-24 19:25 50.51059 8.18534 18307 ft 333 kts 324°
2026-04-24 19:26 50.53007 8.16577 17819 ft 331 kts 325°
2026-04-24 19:26 50.54943 8.14629 17358 ft 329 kts 325°
2026-04-24 19:26 50.56862 8.12696 16904 ft 327 kts 325°
2026-04-24 19:26 50.58769 8.10771 16457 ft 325 kts 325°
2026-04-24 19:27 50.60661 8.08860 16041 ft 322 kts 326°
2026-04-24 19:27 50.62542 8.06961 15624 ft 320 kts 326°
2026-04-24 19:27 50.64410 8.05069 15202 ft 318 kts 326°
2026-04-24 19:27 50.66261 8.03190 14787 ft 316 kts 326°
2026-04-24 19:28 50.68104 8.01318 14379 ft 314 kts 326°
2026-04-24 19:28 50.69925 7.99472 13787 ft 310 kts 327°
2026-04-24 19:28 50.71735 7.97637 13071 ft 307 kts 327°
2026-04-24 19:28 50.73481 7.95731 12384 ft 304 kts 318°
2026-04-24 19:29 50.75683 7.90218 11134 ft 299 kts 286°
2026-04-24 19:29 50.76009 7.86986 10491 ft 299 kts 274°
2026-04-24 19:29 50.75862 7.83746 10069 ft 291 kts 265°
2026-04-24 19:30 50.75659 7.80591 9493 ft 287 kts 266°
2026-04-24 19:30 50.75478 7.77461 8903 ft 285 kts 267°
2026-04-24 19:30 50.75303 7.74352 8327 ft 283 kts 267°
2026-04-24 19:30 50.75128 7.71265 7745 ft 282 kts 267°
2026-04-24 19:31 50.74950 7.68195 7199 ft 280 kts 267°
2026-04-24 19:31 50.74769 7.65143 6659 ft 278 kts 267°
2026-04-24 19:31 50.74587 7.62114 6098 ft 276 kts 267°
2026-04-24 19:31 50.74402 7.59105 5557 ft 274 kts 267°
2026-04-24 19:32 50.74217 7.56129 5035 ft 271 kts 267°
2026-04-24 19:32 50.74032 7.53184 4489 ft 268 kts 266°
2026-04-24 19:32 50.73850 7.50283 4098 ft 260 kts 266°
2026-04-24 19:32 50.73675 7.47538 3968 ft 242 kts 266°
2026-04-24 19:33 50.73507 7.44990 3847 ft 226 kts 266°
2026-04-24 19:33 50.73348 7.42566 3718 ft 218 kts 266°
2026-04-24 19:33 50.73198 7.40234 3594 ft 209 kts 266°
2026-04-24 19:33 50.73055 7.37995 3468 ft 200 kts 266°
2026-04-24 19:34 50.73075 7.35882 3320 ft 188 kts 284°
2026-04-24 19:34 50.73560 7.34025 3086 ft 181 kts 306°
2026-04-24 19:34 50.74410 7.32581 3001 ft 179 kts 319°
2026-04-24 19:34 50.75312 7.31285 2964 ft 173 kts 319°
2026-04-24 19:35 50.76196 7.30015 2799 ft 171 kts 319°
2026-04-24 19:35 50.77071 7.28756 2590 ft 169 kts 319°
2026-04-24 19:35 50.77937 7.27510 2370 ft 168 kts 319°
2026-04-24 19:35 50.78798 7.26270 2147 ft 166 kts 319°
2026-04-24 19:36 50.79631 7.25070 1970 ft 156 kts 319°
2026-04-24 19:36 50.80429 7.23919 1722 ft 153 kts 319°
2026-04-24 19:36 50.81196 7.22813 1497 ft 148 kts 319°
2026-04-24 19:36 50.81951 7.21738 1284 ft 139 kts 319°
2026-04-24 19:37 50.82657 7.20722 1024 ft 135 kts 318°
2026-04-24 19:37 50.83334 7.19713 843 ft 134 kts 316°
2026-04-24 19:37 50.84009 7.18708 734 ft 133 kts 317°
2026-04-24 19:37 50.84686 7.17743 577 ft 133 kts 319°
2026-04-24 19:38 50.85375 7.16775 401 ft 132 kts 318°
2026-04-24 19:38 50.86048 7.15801 305 ft 129 kts 317°
2026-04-24 19:38 50.86651 7.14932 273 ft 102 kts 317°
2026-04-24 19:38 50.87105 7.14275 251 ft 82 kts 317°
2026-04-24 19:39 50.87512 7.13684 240 ft 65 kts 317°
2026-04-24 19:39 50.87824 7.13231 239 ft 45 kts 317°
2026-04-24 19:39 50.88006 7.12966 239 ft 25 kts 309°
2026-04-24 19:39 50.88009 7.12838 239 ft 11 kts 263°
2026-04-24 19:40 50.87995 7.12751 240 ft 0 kts 249°
2026-04-24 19:40 50.87995 7.12750 240 ft 0 kts 249°
2026-04-24 19:40 50.87995 7.12749 239 ft 1 kts 249°
2026-04-24 19:41 50.87981 7.12694 235 ft 9 kts 249°
2026-04-24 19:41 50.87998 7.12581 234 ft 12 kts 298°
2026-04-24 19:41 50.88044 7.12454 233 ft 14 kts 299°
2026-04-24 19:41 50.88102 7.12317 232 ft 14 kts 306°
2026-04-24 19:42 50.88139 7.12224 234 ft 6 kts 282°
2026-04-24 19:42 50.88113 7.12177 232 ft 5 kts 217°
2026-04-24 19:42 50.88088 7.12149 232 ft 3 kts 216°
2026-04-24 19:42 50.88078 7.12137 232 ft 0 kts 216°